SAS9048 ESGG-ENGM

Flight info

Callsign SAS9048
Flight time 0h 39m
Altitude 26000
Route SABAK L997 XENTA DCT REGMA DCT LUNIP
Aircraft A320/M-SDE3FGHIJ1RWXYZ/ALB1

Departure

Time 2026-05-05 20:26
Airport Göteborg Landvetter Airport (ESGG)

Arrival

Time 2026-05-05 21:05
Airport Oslo-Gardermoen International Airport (ENGM)
Time Latitude Longitude Altitude Speed Heading
2026-05-05 19:49 57.66778 12.29312 516 ft 0 kts 116°
2026-05-05 20:09 57.66782 12.29298 516 ft 2 kts 116°
2026-05-05 20:09 57.66789 12.29269 516 ft 2 kts 126°
2026-05-05 20:09 57.66800 12.29244 516 ft 2 kts 125°
2026-05-05 20:09 57.66804 12.29214 516 ft 2 kts 53°
2026-05-05 20:10 57.66795 12.29199 516 ft 0 kts
2026-05-05 20:16 57.66801 12.29201 516 ft 2 kts
2026-05-05 20:17 57.66825 12.29214 516 ft 6 kts 20°
2026-05-05 20:17 57.66886 12.29266 516 ft 12 kts 26°
2026-05-05 20:17 57.66951 12.29322 516 ft 8 kts 20°
2026-05-05 20:17 57.66997 12.29252 516 ft 11 kts 295°
2026-05-05 20:18 57.66978 12.29127 517 ft 13 kts 214°
2026-05-05 20:18 57.66929 12.29080 516 ft 0 kts 205°
2026-05-05 20:18 57.66911 12.29065 516 ft 7 kts 205°
2026-05-05 20:19 57.66857 12.29017 516 ft 10 kts 205°
2026-05-05 20:19 57.66782 12.28951 516 ft 14 kts 206°
2026-05-05 20:19 57.66699 12.28873 516 ft 12 kts 207°
2026-05-05 20:19 57.66671 12.28827 516 ft 0 kts 234°
2026-05-05 20:20 57.66670 12.28824 516 ft 0 kts 236°
2026-05-05 20:20 57.66664 12.28786 515 ft 10 kts 259°
2026-05-05 20:21 57.66625 12.28637 512 ft 16 kts 212°
2026-05-05 20:21 57.66517 12.28540 512 ft 19 kts 205°
2026-05-05 20:21 57.66391 12.28425 511 ft 22 kts 206°
2026-05-05 20:21 57.66246 12.28293 510 ft 25 kts 206°
2026-05-05 20:22 57.66084 12.28146 509 ft 27 kts 206°
2026-05-05 20:22 57.65911 12.27987 507 ft 26 kts 206°
2026-05-05 20:22 57.65762 12.27852 505 ft 22 kts 206°
2026-05-05 20:22 57.65648 12.27748 504 ft 19 kts 205°
2026-05-05 20:23 57.65518 12.27630 502 ft 23 kts 206°
2026-05-05 20:23 57.65365 12.27489 497 ft 26 kts 206°
2026-05-05 20:23 57.65191 12.27335 495 ft 30 kts 205°
2026-05-05 20:23 57.65000 12.27160 489 ft 29 kts 206°
2026-05-05 20:24 57.64881 12.27024 484 ft 13 kts 242°
2026-05-05 20:24 57.64885 12.26935 488 ft 0 kts 300°
2026-05-05 20:24 57.64916 12.26882 484 ft 11 kts 325°
2026-05-05 20:25 57.64994 12.26826 483 ft 13 kts
2026-05-05 20:25 57.65083 12.26891 483 ft 24 kts 25°
2026-05-05 20:25 57.65458 12.27227 499 ft 93 kts 26°
2026-05-05 20:25 57.66209 12.27902 510 ft 144 kts 26°
2026-05-05 20:26 57.67193 12.28795 815 ft 159 kts 26°
2026-05-05 20:26 57.68184 12.29719 1463 ft 160 kts 26°
2026-05-05 20:26 57.69200 12.30653 1955 ft 170 kts 25°
2026-05-05 20:26 57.70337 12.31683 2236 ft 193 kts 25°
2026-05-05 20:27 57.71615 12.32842 2564 ft 214 kts 25°
2026-05-05 20:27 57.73026 12.34127 2932 ft 238 kts 25°
2026-05-05 20:27 57.74574 12.35539 3555 ft 254 kts 25°
2026-05-05 20:27 57.76177 12.37006 4474 ft 259 kts 25°
2026-05-05 20:28 57.77813 12.38504 5134 ft 263 kts 25°
2026-05-05 20:28 57.79524 12.39742 6051 ft 266 kts 10°
2026-05-05 20:28 57.81369 12.39994 6898 ft 267 kts 352°
2026-05-05 20:28 57.83168 12.39187 7755 ft 267 kts 334°
2026-05-05 20:29 57.84773 12.37466 8644 ft 266 kts 322°
2026-05-05 20:29 57.86294 12.35560 9561 ft 267 kts 322°
2026-05-05 20:29 57.87853 12.33608 10316 ft 275 kts 320°
2026-05-05 20:29 57.89356 12.31200 10576 ft 293 kts 310°
2026-05-05 20:30 57.90671 12.28212 11140 ft 300 kts 305°
2026-05-05 20:30 57.92173 12.25435 11881 ft 310 kts 322°
2026-05-05 20:30 57.94152 12.23673 12650 ft 318 kts 332°
2026-05-05 20:30 57.96241 12.22215 13427 ft 323 kts 336°
2026-05-05 20:31 57.98374 12.20842 14136 ft 325 kts 333°
2026-05-05 20:31 58.00499 12.19341 14776 ft 327 kts 332°
2026-05-05 20:31 58.02629 12.17773 15409 ft 330 kts 331°
2026-05-05 20:31 58.04777 12.16177 16039 ft 333 kts 331°
2026-05-05 20:32 58.06946 12.14569 16677 ft 337 kts 331°
2026-05-05 20:32 58.09142 12.12955 17298 ft 340 kts 331°
2026-05-05 20:32 58.11362 12.11337 17932 ft 344 kts 331°
2026-05-05 20:32 58.13603 12.09709 18525 ft 347 kts 331°
2026-05-05 20:33 58.15868 12.08070 19082 ft 350 kts 331°
2026-05-05 20:33 58.18159 12.06416 19647 ft 354 kts 330°
2026-05-05 20:33 58.20471 12.04745 20230 ft 357 kts 330°
2026-05-05 20:33 58.22801 12.03058 20797 ft 360 kts 330°
2026-05-05 20:34 58.25152 12.01351 21342 ft 363 kts 330°
2026-05-05 20:34 58.27524 11.99623 21863 ft 367 kts 330°
2026-05-05 20:34 58.29913 11.97875 22394 ft 370 kts 330°
2026-05-05 20:34 58.32326 11.96107 22949 ft 373 kts 330°
2026-05-05 20:35 58.34759 11.94322 23493 ft 377 kts 330°
2026-05-05 20:35 58.37216 11.92515 23949 ft 380 kts 330°
2026-05-05 20:35 58.39689 11.90696 24389 ft 383 kts 330°
2026-05-05 20:35 58.42183 11.88863 24823 ft 385 kts 330°
2026-05-05 20:36 58.44695 11.87022 25262 ft 388 kts 330°
2026-05-05 20:36 58.47221 11.85168 25685 ft 390 kts 330°
2026-05-05 20:36 58.49762 11.83300 25955 ft 389 kts 329°
2026-05-05 20:36 58.52241 11.81488 25966 ft 374 kts 329°
2026-05-05 20:37 58.54648 11.79726 25968 ft 368 kts 329°
2026-05-05 20:37 58.56229 11.78560 25966 ft 367 kts 329°
2026-05-05 20:37 58.59403 11.76196 25967 ft 366 kts 328°
2026-05-05 20:37 58.61773 11.74421 25966 ft 366 kts 329°
2026-05-05 20:38 58.64110 11.72670 25966 ft 365 kts 328°
2026-05-05 20:38 58.66477 11.70893 25967 ft 365 kts 329°
2026-05-05 20:38 58.68846 11.69117 25967 ft 365 kts 329°
2026-05-05 20:38 58.71206 11.67346 25967 ft 366 kts 329°
2026-05-05 20:39 58.73574 11.65565 25965 ft 366 kts 329°
2026-05-05 20:39 58.75945 11.63785 25969 ft 366 kts 329°
2026-05-05 20:39 58.78319 11.62004 25972 ft 366 kts 329°
2026-05-05 20:39 58.80743 11.60166 25994 ft 381 kts 328°
2026-05-05 20:40 58.83225 11.58286 25963 ft 385 kts 329°
2026-05-05 20:40 58.85716 11.56413 25908 ft 378 kts 329°
2026-05-05 20:40 58.88132 11.54621 25248 ft 368 kts 329°
2026-05-05 20:40 58.90502 11.52850 24533 ft 363 kts 328°
2026-05-05 20:41 58.92838 11.51086 23801 ft 358 kts 328°
2026-05-05 20:41 58.95143 11.49336 23006 ft 353 kts 328°
2026-05-05 20:41 58.97393 11.47632 22484 ft 339 kts 328°
2026-05-05 20:41 58.99533 11.46025 22106 ft 322 kts 328°
2026-05-05 20:42 59.01575 11.44488 21735 ft 307 kts 327°
2026-05-05 20:42 59.03542 11.42986 21381 ft 303 kts 327°
2026-05-05 20:42 59.05492 11.41473 21023 ft 301 kts 327°
2026-05-05 20:42 59.07425 11.39970 20668 ft 298 kts 327°
2026-05-05 20:43 59.09352 11.38475 20317 ft 298 kts 327°
2026-05-05 20:43 59.11272 11.36988 19992 ft 297 kts 327°
2026-05-05 20:43 59.13191 11.35502 19607 ft 296 kts 327°
2026-05-05 20:43 59.14259 11.34676 19407 ft 295 kts 327°
2026-05-05 20:44 59.14500 11.34490 19368 ft 295 kts 327°
2026-05-05 20:44 59.16401 11.33022 18984 ft 294 kts 327°
2026-05-05 20:44 59.18343 11.31694 18600 ft 301 kts 335°
2026-05-05 20:44 59.20455 11.31075 18197 ft 310 kts 342°
2026-05-05 20:45 59.24738 11.30211 17355 ft 308 kts 343°
2026-05-05 20:45 59.26862 11.29777 16955 ft 306 kts 343°
2026-05-05 20:45 59.28976 11.29344 16562 ft 305 kts 344°
2026-05-05 20:46 59.31079 11.28910 16174 ft 304 kts 344°
2026-05-05 20:46 59.33177 11.28474 15774 ft 303 kts 345°
2026-05-05 20:46 59.35268 11.28037 15385 ft 302 kts 345°
2026-05-05 20:46 59.37351 11.27602 15042 ft 299 kts 346°
2026-05-05 20:47 59.39419 11.27169 14664 ft 298 kts 346°
2026-05-05 20:47 59.41472 11.26744 14392 ft 294 kts 347°
2026-05-05 20:47 59.43497 11.26327 14046 ft 292 kts 347°
2026-05-05 20:47 59.45521 11.25904 13663 ft 292 kts 348°
2026-05-05 20:48 59.47534 11.25450 13256 ft 290 kts 347°
2026-05-05 20:48 59.49532 11.24969 12905 ft 288 kts 347°
2026-05-05 20:48 59.51516 11.24480 12497 ft 287 kts 348°
2026-05-05 20:48 59.53496 11.23992 12044 ft 288 kts 348°
2026-05-05 20:49 59.55479 11.23509 11699 ft 285 kts 348°
2026-05-05 20:49 59.57453 11.23037 11330 ft 284 kts 349°
2026-05-05 20:49 59.59381 11.22580 11190 ft 274 kts 349°
2026-05-05 20:49 59.61265 11.22586 11057 ft 272 kts
2026-05-05 20:50 59.62949 11.24208 10928 ft 272 kts 38°
2026-05-05 20:50 59.64037 11.27189 10930 ft 269 kts 65°
2026-05-05 20:50 59.64685 11.30685 10936 ft 271 kts 68°
2026-05-05 20:50 59.65318 11.34200 10935 ft 272 kts 68°
2026-05-05 20:51 59.65951 11.37720 10936 ft 272 kts 68°
2026-05-05 20:51 59.66706 11.41117 10937 ft 269 kts 55°
2026-05-05 20:51 59.67817 11.44055 10956 ft 266 kts 46°
2026-05-05 20:51 59.69012 11.46856 10937 ft 267 kts 46°
2026-05-05 20:52 59.70204 11.49670 10934 ft 267 kts 47°
2026-05-05 20:52 59.71377 11.52449 10934 ft 267 kts 47°
2026-05-05 20:52 59.72570 11.55264 10933 ft 266 kts 45°
2026-05-05 20:52 59.73934 11.57689 10933 ft 262 kts 30°
2026-05-05 20:53 59.75486 11.59556 10933 ft 261 kts 26°
2026-05-05 20:53 59.77044 11.61389 10933 ft 261 kts 26°
2026-05-05 20:53 59.78638 11.63072 10929 ft 257 kts 13°
2026-05-05 20:53 59.80364 11.63506 10930 ft 248 kts 349°
2026-05-05 20:54 59.81985 11.62567 10886 ft 243 kts 328°
2026-05-05 20:54 59.83281 11.60473 10505 ft 240 kts 305°
2026-05-05 20:54 59.84052 11.57577 10191 ft 237 kts 288°
2026-05-05 20:54 59.84614 11.54495 9885 ft 237 kts 289°
2026-05-05 20:55 59.85185 11.51414 9559 ft 237 kts 289°
2026-05-05 20:55 59.85755 11.48347 9256 ft 236 kts 289°
2026-05-05 20:55 59.86323 11.45296 8951 ft 235 kts 289°
2026-05-05 20:55 59.86887 11.42257 8655 ft 233 kts 289°
2026-05-05 20:56 59.87447 11.39236 8371 ft 232 kts 289°
2026-05-05 20:56 59.88005 11.36228 8070 ft 231 kts 289°
2026-05-05 20:56 59.88560 11.33229 7771 ft 231 kts 289°
2026-05-05 20:56 59.89113 11.30235 7478 ft 230 kts 289°
2026-05-05 20:57 59.89665 11.27241 7204 ft 230 kts 289°
2026-05-05 20:57 59.90215 11.24251 6948 ft 230 kts 289°
2026-05-05 20:57 59.90765 11.21256 6676 ft 230 kts 289°
2026-05-05 20:57 59.91313 11.18265 6387 ft 230 kts 289°
2026-05-05 20:58 59.91858 11.15280 6094 ft 229 kts 289°
2026-05-05 20:58 59.92427 11.12324 5791 ft 229 kts 296°
2026-05-05 20:58 59.93328 11.09725 5506 ft 229 kts 311°
2026-05-05 20:58 59.94404 11.07379 5223 ft 229 kts 311°
2026-05-05 20:59 59.95471 11.05036 4939 ft 228 kts 311°
2026-05-05 20:59 59.96534 11.02693 4654 ft 227 kts 311°
2026-05-05 20:59 59.97564 11.00422 4518 ft 218 kts 311°
2026-05-05 20:59 59.98595 10.98319 4433 ft 207 kts 324°
2026-05-05 21:00 59.99874 10.97246 4343 ft 198 kts 351°
2026-05-05 21:00 60.01234 10.97459 4122 ft 196 kts 15°
2026-05-05 21:00 60.02500 10.98206 4008 ft 184 kts 14°
2026-05-05 21:00 60.03715 10.98903 3792 ft 179 kts 14°
2026-05-05 21:01 60.04897 10.99578 3566 ft 175 kts 14°
2026-05-05 21:01 60.06050 11.00237 3326 ft 167 kts 14°
2026-05-05 21:01 60.07107 11.00843 3131 ft 149 kts 13°
2026-05-05 21:01 60.08072 11.01394 2918 ft 141 kts 13°
2026-05-05 21:02 60.09005 11.01927 2722 ft 138 kts 13°
2026-05-05 21:02 60.09919 11.02449 2528 ft 136 kts 13°
2026-05-05 21:02 60.10830 11.02971 2341 ft 136 kts 12°
2026-05-05 21:02 60.11741 11.03492 2142 ft 136 kts 13°
2026-05-05 21:03 60.12652 11.04021 1903 ft 136 kts 12°
2026-05-05 21:03 60.13563 11.04537 1717 ft 136 kts 12°
2026-05-05 21:03 60.14479 11.05059 1524 ft 137 kts 13°
2026-05-05 21:03 60.15398 11.05573 1346 ft 137 kts 13°
2026-05-05 21:04 60.16317 11.06096 1162 ft 137 kts 15°
2026-05-05 21:04 60.17233 11.06631 985 ft 137 kts 14°
2026-05-05 21:04 60.18144 11.07164 798 ft 136 kts 14°
2026-05-05 21:04 60.19045 11.07692 675 ft 129 kts 15°
2026-05-05 21:05 60.19768 11.08089 674 ft 84 kts 17°
2026-05-05 21:05 60.20161 11.08328 674 ft 38 kts 11°
2026-05-05 21:05 60.20279 11.08444 677 ft 9 kts 78°
2026-05-05 21:05 60.20269 11.08508 676 ft 13 kts 108°
2026-05-05 21:06 60.20236 11.08697 679 ft 14 kts 119°
2026-05-05 21:06 60.20143 11.08716 680 ft 16 kts 196°
2026-05-05 21:06 60.20025 11.08648 680 ft 19 kts 195°
2026-05-05 21:06 60.19911 11.08586 679 ft 13 kts 189°
2026-05-05 21:07 60.19852 11.08672 678 ft 12 kts 138°
2026-05-05 21:07 60.19768 11.08669 679 ft 15 kts 196°
2026-05-05 21:07 60.19656 11.08604 678 ft 18 kts 196°
2026-05-05 21:07 60.19556 11.08556 678 ft 15 kts 176°
2026-05-05 21:08 60.19505 11.08749 677 ft 16 kts 106°
2026-05-05 21:08 60.19475 11.08959 683 ft 16 kts 106°
2026-05-05 21:08 60.19443 11.09185 685 ft 13 kts 105°
2026-05-05 21:08 60.19435 11.09298 681 ft 5 kts 65°
2026-05-05 21:09 60.19473 11.09343 682 ft 8 kts 16°
2026-05-05 21:09 60.19480 11.09347 685 ft 0 kts 17°